User: anonymous
Location: Vancouver
(49.2500°N, 123.1330°W)
Time: 06:36:06
(UTC-07:00)
Language:

SO-67 - Orbit

View from above orbital plane
View from above orbital plane
View from above satellite
View from above satellite

Ground track
Ground track

The orbit data is extracted from the following two-line orbital elements,

1 35870U 09049F   14108.18788444  .00013388  00000-0  43498-3 0   639
2 35870 097.1653 131.3381 0001217 053.3233 001.6867 15.32035031254862
Epoch (UTC): 18 April 2014 04:30:33
Eccentricity: 0.0001217
inclination: 97.1653°
perigee height: 469 km
apogee height: 470 km
right ascension of ascending node: 131.3381°
argument of perigee: 53.3233°
revolutions per day: 15.32035031
mean anomaly at epoch: 1.6867°
orbit number at epoch: 25486

The dashed part of the orbit path shows where the satellite is in the earth's shadow,  

DLR